Hot Springs, AR

5:21 AM CDT on August 20, 2017 (GMT -0500)
Hot Springs Memorial

Weather History for KHOT - April, 2014

Change the Weather History Date:

Sunday, April 6, 2014

  Actual Average Record
Temperature  
Mean Temperature 48 °F -  
Max Temperature 51 °F 71 °F 89 °F (1960)
Min Temperature 46 °F 43 °F 32 °F (1950)
Degree Days  
Heating Degree Days 16    
Moisture  
Dew Point 41 °F    
Average Humidity 78    
Maximum Humidity 93    
Minimum Humidity 61    
Precipitation  
Precipitation 0.24 in - - ()
Sea Level Pressure  
Sea Level Pressure 29.91 in    
Wind  
Wind Speed 5 mph (ENE)    
Max Wind Speed 14 mph    
Max Gust Speed 20 mph    
Visibility 8 miles    
Events Rain    
Averages and records for this station are not official NWS values.
T = Trace of Precipitation, MM = Missing Value Source: NWS Daily Summary

Daily Weather History Graph

Daily Weather History Graph

Search for Another Location

Airport or City:

Trip Planner

Search our weather history database for the weather conditions in past years. The results will help you decide how hot, cold, wet, or windy it might be!

Date:

Astronomy

Apr. 06, 2014 Rise Set
Actual Time 6:52 AM CDT 7:37 PM CDT
Civil Twilight 6:27 AM CDT 8:02 PM CDT
Nautical Twilight 5:57 AM CDT 8:32 PM CDT
Astronomical Twilight 5:26 AM CDT 9:03 PM CDT
Moon 12:02 PM CDT (4/6) 1:25 AM CDT (4/6)
Length of Visible Light 13h 35m
Length of Day
12h 44m
Waxing Crescent, 44% of the Moon is Illuminated
Apr 6
Waxing Crescent
Apr 7
First Quarter
Apr 15
Full
Apr 22
Last Quarter
Apr 29
New

Hourly Weather History & Observations

Time (CDT) Temp. Windchill Dew Point Humidity Pressure Visibility Wind Dir Wind Speed Gust Speed Precip Events Conditions
12:53 AM 50.0 °F - 37.0 °F 61% 30.11 in 10.0 mi North 3.5 mph - N/A   Overcast
1:53 AM 50.0 °F - 37.0 °F 61% 30.07 in 10.0 mi Calm Calm - 0.00 in   Overcast
2:53 AM 48.9 °F - 37.0 °F 64% 30.07 in 10.0 mi Calm Calm - N/A   Scattered Clouds
3:53 AM 48.9 °F - 37.0 °F 64% 30.03 in 10.0 mi ENE 5.8 mph - N/A   Mostly Cloudy
4:53 AM 48.0 °F - 37.0 °F 66% 30.00 in 10.0 mi East 8.1 mph 19.6 mph N/A   Overcast
5:53 AM 48.0 °F - 37.0 °F 66% 30.00 in 10.0 mi East 4.6 mph - N/A   Overcast
6:53 AM 46.9 °F - 37.0 °F 68% 29.97 in 10.0 mi East 4.6 mph - N/A   Scattered Clouds
7:53 AM 48.9 °F - 37.0 °F 64% 30.02 in 10.0 mi Calm Calm - N/A   Scattered Clouds
8:53 AM 48.0 °F - 42.1 °F 80% 29.96 in 10.0 mi East 10.4 mph - 0.01 in   Overcast
9:53 AM 48.9 °F - 39.0 °F 69% 29.94 in 10.0 mi East 9.2 mph - N/A   Mostly Cloudy
10:53 AM 51.1 °F - 39.9 °F 66% 29.96 in 10.0 mi East 6.9 mph - 0.00 in   Overcast
11:53 AM 48.9 °F - 42.1 °F 77% 30.01 in 6.0 mi SE 4.6 mph - 0.01 in Rain Rain
12:53 PM 48.0 °F - 44.1 °F 86% 29.95 in 6.0 mi East 11.5 mph - N/A Rain Light Rain
1:53 PM 48.0 °F - 44.1 °F 86% 29.90 in 4.0 mi East 9.2 mph - N/A Rain Rain
2:53 PM 48.0 °F - 45.0 °F 89% 29.89 in 6.0 mi East 5.8 mph - N/A Rain Light Rain
3:53 PM 48.9 °F - 43.0 °F 80% 29.85 in 10.0 mi NE 6.9 mph - 0.03 in Rain Light Rain
4:53 PM 48.9 °F - 45.0 °F 86% 29.83 in 7.0 mi ENE 6.9 mph - 0.04 in Rain Light Rain
5:53 PM 48.9 °F - 45.0 °F 86% 29.82 in 10.0 mi ENE 13.8 mph - 0.03 in   Overcast
6:53 PM 48.0 °F - 43.0 °F 83% 29.79 in 10.0 mi ENE 13.8 mph - 0.03 in   Overcast
7:53 PM 46.9 °F - 44.1 °F 90% 29.80 in 2.5 mi NNE 4.6 mph - 0.02 in Rain Rain
8:06 PM 46.4 °F 45.2 °F 44.6 °F 93% 29.80 in 4.0 mi NNE 3.5 mph - 0.01 in Rain Light Rain
8:53 PM 46.9 °F - 44.1 °F 90% 29.80 in 3.0 mi Variable 4.6 mph - 0.02 in Rain Light Rain
9:53 PM 46.9 °F - 45.0 °F 93% 29.78 in 3.0 mi ENE 10.4 mph - 0.02 in Rain Light Rain
10:53 PM 48.0 °F - 45.0 °F 89% 29.77 in 10.0 mi ENE 10.4 mph - 0.02 in   Overcast
11:53 PM 48.0 °F - 45.0 °F 89% 29.75 in 4.0 mi ENE 10.4 mph - 0.01 in Rain Light Rain